Location: Hepcat Sky Observatory
(29.9800°N, 95.6500°W)
Time: 16:47:10
(UTC-06:00)

Cosmos 2366 rocket - Visible Passes

Search period start: 27 February 2017 00:00
Search period end: 09 March 2017 00:00
Orbit: 954 x 998 km, 82.9° (Epoch: 26 February)

Date Brightness Start Highest point End Pass type
(mag) Time Alt. Az. Time Alt. Az. Time Alt. Az.
02 Mar 6.1 20:08:01 11° NNE 20:08:01 11° NNE 20:08:09 10° NNE visible
02 Mar 6.5 21:52:34 12° NNW 21:52:34 12° NNW 21:53:04 10° NNW visible
03 Mar 5.1 20:22:07 10° S 20:31:23 29° NNE 20:34:16 10° NNE visible
03 Mar 6.7 22:15:51 11° NW 22:15:51 11° NW 22:16:29 10° NW visible
04 Mar 5.4 19:06:10 10° ESE 19:09:04 14° E 19:11:59 10° NE visible
04 Mar 4.3 20:47:44 10° SSW 20:53:46 61° W 20:59:51 10° N visible
05 Mar 4.7 19:29:12 10° SE 19:34:20 29° E 19:39:28 10° NNE visible
05 Mar 5.6 21:14:14 10° SW 21:19:32 30° WNW 21:24:52 10° NNW visible
06 Mar 3.9 19:53:46 10° S 19:59:44 58° E 20:05:45 10° NNE visible
06 Mar 6.5 21:42:05 10° WSW 21:45:28 15° WNW 21:48:51 10° NW visible
07 Mar 4.1 20:19:12 10° SSW 20:25:17 72° W 20:31:27 10° N visible
08 Mar 4.9 19:01:09 10° SE 19:05:56 24° E 19:10:43 10° NE visible
08 Mar 5.4 20:45:28 10° SW 20:51:01 36° W 20:56:36 10° NNW visible
